Weather History for Grand Island, NE

Change the Weather History Date:

Wednesday, February 6, 2013

  Actual Average Record
Temperature  
Mean Temperature 44 °F 27 °F  
Max Temperature 54 °F 38 °F 63 °F (2009)
Min Temperature 34 °F 16 °F -22 °F (1905)
Degree Days  
Heating Degree Days 21 38  
Month to date heating degree days 168 232  
Since 1 July heating degree days 3683 3988  
Cooling Degree Days 0 0  
Month to date cooling degree days 0 0  
Year to date cooling degree days 0 0  
Moisture  
Dew Point 35 °F    
Average Humidity 76    
Maximum Humidity 100    
Minimum Humidity 52    
Precipitation  
Precipitation 0.00 in 0.02 in 0.35 in (1905)
Month to date precipitation 0.00 0.12  
Year to date precipitation 0.16 0.65  
Snow  
Snow 0.00 in 0.30 in 3.50 in (1905)
Month to date snowfall 0.0 1.5  
Since 1 July snowfall 10.4 17.3  
Snow Depth 0.00 in    
Sea Level Pressure  
Sea Level Pressure 29.90 in    
Wind  
Wind Speed 13 mph (South)    
Max Wind Speed 28 mph    
Max Gust Speed 35 mph    
Visibility 9 miles    
Events      
T = Trace of Precipitation, MM = Missing Value Source: NWS Daily Summary

Daily Weather History Graph

Daily Weather History Graph

Search for Another Location

Airport:

Trip Planner

Search our weather history database for the weather conditions in past years. The results will help you decide how hot, cold, wet, or windy it might be!

Date:

Astronomy

Feb. 06, 2013 Rise Set
Actual Time 7:38 AM CST 5:57 PM CST
Civil Twilight 7:09 AM CST 6:25 PM CST
Nautical Twilight 6:36 AM CST 6:58 PM CST
Astronomical Twilight 6:04 AM CST 7:30 PM CST
Moon 4:24 AM CST (2/6) 2:16 PM CST (2/6)
Length of Visible Light 11h 16m
Length of Day
10h 18m
Waning Crescent, 17% of the Moon is Illuminated
Feb 6
Waning Crescent
Feb 10
New
Feb 17
First Quarter
Feb 25
Full
Mar 4
Last Quarter

Hourly Weather History & Observations

Time (CST) Temp. Windchill Dew Point Humidity Pressure Visibility Wind Dir Wind Speed Gust Speed Precip Events Conditions
12:53 AM 39.0 °F 32.3 °F 28.9 °F 67% 30.00 in 10.0 mi SSE 10.4 mph - N/A   Mostly Cloudy
1:53 AM 36.0 °F 29.0 °F 28.9 °F 76% 29.99 in 10.0 mi South 9.2 mph - N/A   Clear
2:53 AM 35.1 °F 26.9 °F 28.9 °F 78% 29.99 in 10.0 mi South 11.5 mph - N/A   Clear
3:53 AM 35.1 °F 26.9 °F 28.0 °F 76% 29.97 in 10.0 mi South 11.5 mph - N/A   Clear
4:53 AM 36.0 °F 26.0 °F 28.0 °F 73% 29.95 in 10.0 mi South 17.3 mph - N/A   Clear
5:53 AM 36.0 °F 25.6 °F 28.0 °F 73% 29.95 in 10.0 mi South 18.4 mph 24.2 mph N/A   Clear
6:53 AM 37.4 °F 27.2 °F 28.4 °F 70% 29.90 in 10.0 mi South 19.6 mph 27.6 mph N/A   Partly Cloudy
7:53 AM 37.9 °F 27.9 °F 28.9 °F 70% 29.94 in 10.0 mi South 19.6 mph - N/A   Clear
8:53 AM 39.0 °F 30.3 °F 28.9 °F 67% 29.94 in 10.0 mi South 16.1 mph 23.0 mph N/A   Clear
9:53 AM 42.1 °F 33.6 °F 30.0 °F 62% 29.92 in 10.0 mi South 18.4 mph - N/A   Clear
10:53 AM 46.0 °F 38.3 °F 30.9 °F 56% 29.91 in 10.0 mi South 20.7 mph 26.5 mph N/A   Clear
11:53 AM 50.0 °F - 33.1 °F 52% 29.88 in 10.0 mi South 20.7 mph 26.5 mph N/A   Clear
12:49 PM 51.8 °F - 39.2 °F 62% 29.84 in 10.0 mi SSW 19.6 mph 32.2 mph N/A   Mostly Cloudy
12:53 PM 51.1 °F - 39.9 °F 66% 29.86 in 10.0 mi South 20.7 mph 31.1 mph N/A   Mostly Cloudy
1:23 PM 53.6 °F - 42.8 °F 67% 29.82 in 10.0 mi South 19.6 mph 31.1 mph N/A   Scattered Clouds
1:53 PM 52.0 °F - 41.0 °F 66% 29.83 in 10.0 mi SSW 19.6 mph 26.5 mph N/A   Clear
2:53 PM 52.0 °F - 39.9 °F 63% 29.82 in 10.0 mi SSW 18.4 mph 24.2 mph N/A   Clear
3:53 PM 52.0 °F - 39.9 °F 63% 29.81 in 10.0 mi South 11.5 mph - N/A   Clear
4:53 PM 53.1 °F - 42.1 °F 66% 29.82 in 10.0 mi South 8.1 mph - N/A   Clear
5:53 PM 46.0 °F 42.5 °F 39.9 °F 79% 29.84 in 10.0 mi SE 6.9 mph - N/A   Clear
6:53 PM 43.0 °F 41.3 °F 39.9 °F 89% 29.86 in 10.0 mi SE 3.5 mph - N/A   Clear
7:53 PM 42.1 °F 40.2 °F 39.0 °F 89% 29.87 in 9.0 mi SE 3.5 mph - N/A   Clear
8:53 PM 37.9 °F - 36.0 °F 93% 29.89 in 4.0 mi Calm Calm - N/A   Scattered Clouds
9:53 PM 37.9 °F 33.5 °F 37.0 °F 97% 29.91 in 5.0 mi North 5.8 mph - N/A   Mostly Cloudy
10:53 PM 39.0 °F 34.0 °F 37.9 °F 96% 29.92 in 4.0 mi NNW 6.9 mph - N/A   Mostly Cloudy
11:53 PM 39.0 °F 32.8 °F 36.0 °F 89% 29.94 in 10.0 mi North 9.2 mph - N/A   Partly Cloudy